JS2HDO-13 Weather Reports


time (UTC)temp
C
wind
direction
speed
KPH
gust
KPH
rain 1hr
cm
rain 24hr
cm
rain mn
cm
humidity
%
barometer
mb
20260504183855 10 26 0.0 0.0 0.00 0.89 0.00 79 1011.8
20260504183657 10 26 0.0 0.0 0.00 0.91 0.00 78 1011.8
20260504182855 10 26 0.0 0.0 0.00 0.91 0.00 77 1011.6
20260504181855 10 318 0.0 0.0 0.00 0.94 0.00 77 1011.3
20260504181657 11 343 0.0 1.6 0.00 0.94 0.00 77 1011.2
20260504180855 11 347 0.0 0.0 0.00 0.94 0.00 75 1011.0
20260504175856 11 323 0.0 0.0 0.00 0.99 0.00 75 1011.0
20260504175658 11 323 1.6 4.8 0.00 1.02 0.00 75 1011.0
20260504174854 11 41 0.0 4.8 0.00 1.04 0.00 76 1010.7
20260504173855 11 345 1.6 3.2 0.00 1.07 0.00 77 1010.5
20260504173657 11 341 1.6 4.8 0.00 1.07 0.00 77 1010.5
20260504172856 11 85 0.0 1.6 0.00 1.09 0.00 77 1010.1
20260504171855 12 354 0.0 0.0 0.00 1.12 0.00 77 1009.9
20260504171659 12 11 0.0 1.6 0.00 1.12 0.00 76 1009.8
20260504170855 11 329 0.0 1.6 0.00 1.14 0.00 77 1009.7
20260504150855 11 257 0.0 1.6 0.00 2.11 0.00 73 1007.4
20260504140855 12 187 0.0 4.8 0.00 2.24 2.16 68 1005.9
20260504081855 17 66 3.2 8.0 0.00 2.64 2.16 64 997.4
20260504080854 17 129 1.6 3.2 0.00 2.64 2.16 64 997.2
20260504045854 22 62 3.2 9.7 0.00 2.64 2.16 63 996.6
20260504045657 22 182 8.0 12.9 0.00 2.64 2.16 63 996.5
20260504044855 22 263 4.8 12.9 0.00 2.64 2.16 62 996.5
20260504043855 22 60 0.0 4.8 0.00 2.64 2.16 63 996.3
20260504042855 22 317 1.6 14.5 0.00 2.64 2.16 62 996.5
20260504041855 22 212 3.2 11.3 0.00 2.64 2.16 62 996.4
20260504040854 23 219 3.2 9.7 0.00 2.64 2.16 62 996.4
20260504035855 23 153 1.6 4.8 0.00 2.64 2.16 60 996.3
20260504034855 23 222 4.8 14.5 0.00 2.64 2.16 60 996.6
20260504033855 23 147 3.2 4.8 0.00 2.64 2.16 60 996.6
20260504033657 23 104 1.6 4.8 0.00 2.64 2.16 60 996.4
20260504032856 23 103 3.2 4.8 0.00 2.64 2.16 61 996.5
20260504031854 23 49 3.2 3.2 0.00 2.64 2.16 62 996.7
20260504031657 23 359 4.8 4.8 0.00 2.64 2.16 61 996.7
20260504030855 23 214 3.2 8.0 0.00 2.64 2.16 62 996.8
20260504025855 23 117 1.6 4.8 0.00 2.64 2.16 64 996.6
20260504025657 23 195 4.8 9.7 0.00 2.64 2.16 63 996.7
20260504024854 22 149 1.6 4.8 0.00 2.64 2.16 66 996.8
20260504023855 22 203 4.8 12.9 0.00 2.64 2.16 65 996.6
20260504022854 22 73 4.8 9.7 0.00 2.64 2.16 66 996.9
20260504021855 22 82 4.8 11.3 0.00 2.64 2.16 66 996.9
20260504020854 22 133 3.2 8.0 0.00 2.64 2.16 66 996.9
20260504015855 23 174 8.0 12.9 0.00 2.64 2.16 66 996.9
20260504015658 23 167 4.8 4.8 0.00 2.64 2.16 67 996.8
20260504014854 23 213 4.8 16.1 0.00 2.64 2.16 67 996.9
20260504013855 22 163 4.8 4.8 0.00 2.64 2.16 68 996.7
20260504012854 23 200 4.8 9.7 0.00 2.64 2.16 68 997.0
20260504011855 22 113 1.6 4.8 0.00 2.64 2.16 69 997.1
20260504010854 22 158 4.8 11.3 0.00 2.64 2.16 70 997.3
20260504005855 22 111 1.6 8.0 0.00 2.64 2.16 72 997.2
20260504004854 22 154 1.6 12.9 0.00 2.64 2.16 74 996.9
20260504003855 21 3 3.2 12.9 0.00 2.64 2.16 76 997.3
20260504002854 21 43 1.6 9.7 0.00 2.64 2.16 77 997.3
20260504001855 21 163 3.2 9.7 0.00 2.64 2.16 80 997.3
20260504001658 21 166 3.2 8.0 0.00 2.64 2.16 80 997.2
20260504000854 20 79 1.6 8.0 0.00 2.64 2.16 83 997.3
20260503235855 20 66 3.2 4.8 0.00 2.64 2.16 84 997.2
20260503235658 20 172 3.2 4.8 0.00 2.64 2.16 85 997.1
20260503234855 19 353 3.2 4.8 0.00 2.64 2.16 85 997.4
20260503233855 18 206 4.8 19.3 0.00 2.64 2.16 87 997.5
20260503233658 18 172 3.2 19.3 0.00 2.64 2.16 88 997.5
20260503232854 18 141 1.6 4.8 0.00 2.64 2.16 89 997.3
20260503231854 18 173 1.6 4.8 0.00 2.64 2.16 90 997.2
20260503230855 18 209 1.6 9.7 0.00 2.64 2.16 92 997.0
20260503225855 18 96 1.6 4.8 0.00 2.64 2.16 93 997.1
20260503225657 18 77 0.0 1.6 0.00 2.64 2.16 93 997.1
20260503224854 18 111 0.0 1.6 0.00 2.64 2.16 93 997.2
20260503223855 18 124 1.6 4.8 0.00 2.64 2.16 94 997.3
20260503222854 18 67 1.6 8.0 0.00 2.64 2.16 94 997.1
20260503221855 18 42 1.6 4.8 0.03 2.64 2.16 95 997.0
20260503220854 18 98 1.6 3.2 0.05 2.64 2.16 95 996.9
20260503215855 18 83 1.6 9.7 0.08 2.64 2.16 95 996.7
20260503215658 18 13 1.6 1.6 0.08 2.64 2.16 95 996.6
20260503214855 19 166 1.6 8.0 0.08 2.64 2.16 95 996.4
20260503213854 19 194 3.2 11.3 0.10 2.64 2.16 95 996.4
20260503212855 19 114 3.2 8.0 0.13 2.64 2.16 95 996.0
20260503211854 20 215 3.2 19.3 0.13 2.62 2.13 95 996.2
20260503210855 20 229 4.8 12.9 0.15 2.59 2.11 95 995.7
20260503205854 20 47 1.6 4.8 0.25 2.57 2.08 95 995.8
20260503204855 20 263 3.2 19.3 0.41 2.57 2.08 95 995.7
20260503203855 20 7 4.8 16.1 0.56 2.54 2.06 95 995.7
20260503202855 20 72 4.8 9.7 0.66 2.51 2.03 95 995.5
20260503201854 20 82 1.6 4.8 0.66 2.49 2.01 94 995.8
20260503201656 20 247 4.8 11.3 0.66 2.49 2.01 94 995.8
20260503200855 20 288 1.6 3.2 0.61 2.44 1.96 94 996.0
20260503195855 20 285 3.2 4.8 0.53 2.31 1.83 94 996.2
20260503194855 20 175 3.2 8.0 0.41 2.16 1.68 94 996.2
20260503193855 19 352 4.8 4.8 0.23 1.98 1.50 94 996.1
20260503193657 19 310 8.0 19.3 0.23 1.96 1.47 94 996.0
20260503192854 19 354 4.8 4.8 0.13 1.85 1.37 94 996.1
20260503191854 19 143 3.2 4.8 0.13 1.83 1.35 94 996.6
20260503191657 19 249 4.8 4.8 0.13 1.83 1.35 94 996.6
20260503190855 19 63 3.2 3.2 0.13 1.83 1.35 94 997.0
20260503185854 19 176 3.2 12.9 0.13 1.78 1.30 94 997.4
20260503185656 19 189 4.8 4.8 0.15 1.78 1.30 94 997.4
20260503184855 18 126 1.6 3.2 0.15 1.75 1.27 94 997.8